contact:dominique.lefevre@mio.osupytheas.fr, maurice.libes@osupytheas.fr, didier.mallarino@osupytheas.fr
Project:EMSO http://www.emso-fr.org/EMSO-France
Depth: 2436.0 m
Title:EMSO Ligure Ouest : Data MII capteur AQUADOPP
Date,Latitude,Longitude,X_East,Y_North,Z_Up,Amplitude_X,Amplitude_Y,Amplitude_Z,Batterie,SoundSpeed,Heading,Pitch,Roll,Pressure,TIS,Speed,Direction
, degrees North, degrees East, m.s-1, m.s-1,m.s-1, 1, 1, 1, Volt, m.s-1, degree, degree, degree, dbar, degree_C, m.s-1, degree
2021-11-01T00:04:03,42.805,6.029,-0.005,-0.001,0.011,101.0,101.0,101.0,13.3,1505.2,330.6,-0.8,1.8,2470.675,13.28,0.005,258.7
2021-11-01T00:07:03,42.805,6.029,-0.009,0.03,0.017,101.0,102.0,101.0,13.4,1505.2,326.1,-0.8,1.8,2470.682,13.28,0.031,343.3
2021-11-01T00:10:03,42.805,6.029,-0.014,-0.009,-0.007,103.0,102.0,100.0,13.4,1505.2,327.4,-0.8,1.8,2470.682,13.28,0.016,237.3
2021-11-01T00:13:03,42.805,6.029,-0.023,-0.007,0.008,102.0,101.0,101.0,13.4,1505.2,327.6,-0.7,1.8,2470.633,13.28,0.024,253.1
2021-11-01T00:16:03,42.805,6.029,-0.016,-0.01,-0.035,101.0,102.0,101.0,13.4,1505.2,329.6,-0.7,1.8,2470.645,13.28,0.018,238.0
2021-11-01T00:19:03,42.805,6.029,-0.026,0.009,-0.014,101.0,102.0,101.0,13.4,1505.2,331.8,-0.8,1.8,2470.686,13.28,0.027,289.1
2021-11-01T00:22:03,42.805,6.029,-0.017,0.006,-0.01,102.0,101.0,101.0,13.4,1505.2,331.6,-0.7,1.8,2470.635,13.28,0.018,289.4
2021-11-01T00:25:03,42.805,6.029,-0.031,0.005,-0.021,101.0,101.0,101.0,13.4,1505.2,330.2,-0.8,1.8,2470.641,13.28,0.031,279.2
2021-11-01T00:28:03,42.805,6.029,-0.006,0.007,0.019,102.0,101.0,101.0,13.4,1505.2,325.3,-0.8,1.8,2470.6,13.29,0.009,319.4
2021-11-01T00:31:03,42.805,6.029,-0.012,0.012,-0.004,101.0,101.0,101.0,13.4,1505.2,326.0,-0.7,1.8,2470.647,13.29,0.016,315.0
2021-11-01T00:34:03,42.805,6.029,-0.035,0.023,0.03,102.0,100.0,101.0,13.4,1505.2,327.5,-0.8,1.8,2470.611,13.29,0.041,303.3
2021-11-01T00:37:03,42.805,6.029,-0.042,0.02,-0.016,101.0,101.0,102.0,13.4,1505.2,327.5,-0.7,1.8,2470.617,13.29,0.046,295.5
2021-11-01T00:40:03,42.805,6.029,-0.02,-0.004,-0.009,101.0,101.0,101.0,13.4,1505.2,327.7,-0.8,1.8,2470.666,13.28,0.02,258.7
2021-11-01T00:43:03,42.805,6.029,-0.032,0.008,-0.007,101.0,101.0,101.0,13.4,1505.2,330.5,-0.8,1.8,2470.649,13.28,0.032,284.0
2021-11-01T00:46:03,42.805,6.029,-0.028,0.016,-0.008,102.0,102.0,101.0,13.4,1505.2,328.4,-0.8,1.8,2470.598,13.29,0.032,299.7
2021-11-01T00:49:03,42.805,6.029,-0.03,0.006,-0.026,101.0,101.0,101.0,13.4,1505.2,327.8,-0.8,1.8,2470.619,13.29,0.03,281.3
2021-11-01T00:52:03,42.805,6.029,-0.024,-0.003,-0.006,102.0,101.0,101.0,13.4,1505.2,331.6,-0.7,1.8,2470.603,13.29,0.024,262.9
2021-11-01T00:55:03,42.805,6.029,-0.035,-0.001,-0.049,102.0,101.0,101.0,13.4,1505.2,327.2,-0.8,1.8,2470.63,13.29,0.035,268.4
2021-11-01T00:58:03,42.805,6.029,-0.02,-0.017,-0.004,101.0,101.0,101.0,13.4,1505.2,326.0,-0.7,1.9,2470.65,13.29,0.026,229.6
2021-11-01T01:04:03,42.805,6.029,-0.031,0.027,0.001,103.0,102.0,103.0,13.4,1505.2,328.5,-0.8,1.8,2470.637,13.28,0.041,311.1
2021-11-01T01:07:03,42.805,6.029,-0.059,0.029,-0.001,100.0,101.0,101.0,13.4,1505.2,329.3,-0.8,1.8,2470.69,13.28,0.065,296.2
2021-11-01T01:10:03,42.805,6.029,-0.042,0.019,0.004,100.0,101.0,102.0,13.4,1505.2,328.0,-0.8,1.8,2470.671,13.28,0.046,294.3
2021-11-01T01:13:03,42.805,6.029,-0.018,-0.002,0.005,101.0,101.0,100.0,13.4,1505.2,326.0,-0.7,1.9,2470.655,13.28,0.018,263.7
2021-11-01T01:16:03,42.805,6.029,-0.008,0.0,0.009,100.0,101.0,100.0,13.4,1505.2,328.3,-0.8,1.9,2470.683,13.28,0.008,270.0
2021-11-01T01:19:03,42.805,6.029,0.007,-0.018,-0.026,100.0,100.0,101.0,13.4,1505.2,327.0,-0.7,1.8,2470.637,13.28,0.019,158.8
2021-11-01T01:22:03,42.805,6.029,-0.039,0.021,-0.033,101.0,101.0,100.0,13.3,1505.2,328.9,-0.8,1.8,2470.688,13.29,0.044,298.3
2021-11-01T01:25:03,42.805,6.029,-0.041,-0.001,-0.021,100.0,101.0,101.0,13.4,1505.2,331.7,-0.7,1.8,2470.695,13.29,0.041,268.6
2021-11-01T01:28:03,42.805,6.029,-0.003,0.002,0.024,101.0,101.0,101.0,13.4,1505.2,329.7,-0.7,1.8,2470.643,13.29,0.003,303.7
2021-11-01T01:31:03,42.805,6.029,-0.032,0.013,-0.008,102.0,102.0,101.0,13.4,1505.2,326.8,-0.7,1.8,2470.663,13.29,0.034,292.1
2021-11-01T01:34:03,42.805,6.029,-0.017,-0.003,-0.005,101.0,102.0,101.0,13.3,1505.2,329.2,-0.8,1.9,2470.653,13.29,0.017,260.0
2021-11-01T01:37:03,42.805,6.029,-0.025,0.005,0.004,101.0,100.0,102.0,13.3,1505.2,329.8,-0.8,1.8,2470.647,13.29,0.025,281.3
2021-11-01T01:40:03,42.805,6.029,-0.03,-0.008,-0.032,101.0,101.0,100.0,13.4,1505.2,328.3,-0.7,1.8,2470.632,13.29,0.031,255.1
2021-11-01T01:43:03,42.805,6.029,-0.013,0.004,-0.001,101.0,101.0,102.0,13.3,1505.2,327.2,-0.7,1.8,2470.635,13.29,0.013,287.1
2021-11-01T01:46:03,42.805,6.029,-0.037,0.014,-0.029,101.0,101.0,101.0,13.4,1505.2,326.6,-0.8,1.8,2470.641,13.29,0.039,290.7
2021-11-01T01:49:03,42.805,6.029,0.0,0.004,0.01,101.0,102.0,101.0,13.4,1505.2,327.5,-0.8,1.8,2470.642,13.29,0.004,0.0
2021-11-01T01:52:03,42.805,6.029,-0.011,0.009,0.002,100.0,101.0,101.0,13.3,1505.2,325.5,-0.8,1.8,2470.659,13.29,0.014,309.3
2021-11-01T01:55:03,42.805,6.029,-0.019,-0.018,0.0,101.0,101.0,101.0,13.4,1505.2,328.4,-0.8,1.8,2470.637,13.29,0.026,226.5
2021-11-01T01:58:03,42.805,6.029,-0.019,-0.01,-0.025,101.0,101.0,101.0,13.3,1505.2,330.9,-0.8,1.8,2470.647,13.29,0.021,242.2
2021-11-01T02:04:03,42.805,6.029,-0.02,-0.004,0.0,102.0,101.0,101.0,13.4,1505.2,326.1,-0.7,1.8,2470.702,13.28,0.02,258.7
2021-11-01T02:07:03,42.805,6.029,-0.021,0.015,-0.008,102.0,101.0,101.0,13.4,1505.2,328.7,-0.8,1.8,2470.7,13.28,0.025,305.5
2021-11-01T02:10:03,42.805,6.029,-0.021,-0.008,-0.021,101.0,101.0,101.0,13.4,1505.2,326.7,-0.8,1.8,2470.7,13.28,0.022,249.1
2021-11-01T02:13:03,42.805,6.029,-0.037,-0.012,-0.014,101.0,101.0,101.0,13.4,1505.2,327.7,-0.8,1.8,2470.653,13.28,0.038,252.0
2021-11-01T02:16:03,42.805,6.029,-0.017,0.018,-0.016,101.0,101.0,101.0,13.4,1505.2,327.6,-0.7,1.8,2470.668,13.28,0.024,316.6
2021-11-01T02:19:03,42.805,6.029,-0.034,0.013,0.008,100.0,103.0,101.0,13.4,1505.2,328.6,-0.7,1.8,2470.659,13.29,0.036,290.9
2021-11-01T02:22:03,42.805,6.029,-0.023,0.012,0.011,101.0,101.0,101.0,13.4,1505.2,327.6,-0.7,1.8,2470.68,13.29,0.025,297.6
2021-11-01T02:25:03,42.805,6.029,-0.026,-0.004,0.001,101.0,101.0,101.0,13.4,1505.2,329.9,-0.7,1.8,2470.69,13.29,0.026,261.3
2021-11-01T02:28:03,42.805,6.029,-0.012,-0.015,-0.016,100.0,102.0,101.0,13.3,1505.2,326.1,-0.7,1.8,2470.697,13.29,0.019,218.7
2021-11-01T02:31:03,42.805,6.029,-0.026,0.008,-0.02,101.0,101.0,102.0,13.4,1505.2,329.9,-0.8,1.9,2470.673,13.29,0.027,287.1
2021-11-01T02:34:03,42.805,6.029,-0.071,0.029,0.019,101.0,102.0,102.0,13.4,1505.2,329.4,-0.7,1.8,2470.66,13.29,0.076,292.2
2021-11-01T02:37:03,42.805,6.029,-0.017,0.006,0.005,100.0,103.0,103.0,13.3,1505.2,327.3,-0.7,1.8,2470.69,13.29,0.018,289.4
2021-11-01T02:40:03,42.805,6.029,-0.036,0.006,-0.013,103.0,101.0,101.0,13.4,1505.2,327.5,-0.7,1.8,2470.649,13.29,0.036,279.5
2021-11-01T02:43:03,42.805,6.029,0.002,-0.005,0.0,102.0,101.0,101.0,13.4,1505.2,330.6,-0.8,1.8,2470.691,13.29,0.005,158.2
2021-11-01T02:46:03,42.805,6.029,-0.028,0.014,-0.006,101.0,101.0,100.0,13.4,1505.2,326.8,-0.8,1.8,2470.652,13.29,0.031,296.6
2021-11-01T02:49:03,42.805,6.029,-0.017,0.003,0.002,101.0,101.0,100.0,13.4,1505.2,326.3,-0.8,1.8,2470.675,13.29,0.017,280.0
2021-11-01T02:52:03,42.805,6.029,-0.018,0.0,-0.002,100.0,101.0,101.0,13.4,1505.2,328.9,-0.7,1.8,2470.662,13.29,0.018,270.0
2021-11-01T02:55:03,42.805,6.029,-0.038,0.017,0.016,100.0,100.0,100.0,13.4,1505.2,326.6,-0.8,1.8,2470.649,13.29,0.041,294.1
2021-11-01T02:58:03,42.805,6.029,-0.03,0.014,0.014,102.0,98.0,100.0,13.3,1505.2,328.9,-0.8,1.9,2470.678,13.29,0.033,295.0
2021-11-01T03:04:03,42.805,6.029,-0.009,0.02,0.026,100.0,102.0,100.0,13.4,1505.2,326.8,-0.8,1.8,2470.725,13.28,0.021,335.8
2021-11-01T03:07:03,42.805,6.029,-0.007,0.013,0.011,101.0,101.0,101.0,13.3,1505.2,327.8,-0.8,1.8,2470.723,13.29,0.014,331.7
2021-11-01T03:10:03,42.805,6.029,-0.01,0.009,0.0,102.0,99.0,101.0,13.3,1505.2,328.6,-0.8,1.8,2470.698,13.29,0.013,312.0
2021-11-01T03:13:03,42.805,6.029,-0.004,-0.001,0.009,99.0,101.0,100.0,13.4,1505.2,328.4,-0.7,1.8,2470.749,13.29,0.004,256.0
2021-11-01T03:16:03,42.805,6.029,0.01,-0.017,-0.004,100.0,101.0,100.0,13.3,1505.2,329.1,-0.8,1.8,2470.71,13.29,0.019,149.5
2021-11-01T03:19:03,42.805,6.029,-0.041,-0.004,0.003,101.0,101.0,100.0,13.3,1505.2,330.1,-0.8,1.8,2470.744,13.29,0.041,264.4
2021-11-01T03:22:03,42.805,6.029,-0.018,-0.006,-0.011,101.0,101.0,101.0,13.4,1505.2,325.4,-0.7,1.8,2470.72,13.29,0.018,251.6
2021-11-01T03:25:03,42.805,6.029,-0.023,0.017,0.012,101.0,101.0,101.0,13.4,1505.2,325.1,-0.7,1.8,2470.675,13.29,0.028,306.5
2021-11-01T03:28:03,42.805,6.029,-0.031,0.01,-0.006,102.0,101.0,100.0,13.4,1505.2,329.7,-0.8,1.8,2470.692,13.29,0.032,287.9
2021-11-01T03:31:03,42.805,6.029,-0.044,0.017,0.0,100.0,101.0,102.0,13.4,1505.2,330.2,-0.8,1.8,2470.721,13.29,0.047,291.1
2021-11-01T03:34:03,42.805,6.029,0.003,0.004,0.023,100.0,101.0,101.0,13.4,1505.2,331.2,-0.7,1.8,2470.71,13.29,0.005,36.9
2021-11-01T03:37:03,42.805,6.029,-0.021,0.007,-0.016,100.0,100.0,102.0,13.3,1505.2,328.3,-0.8,1.8,2470.704,13.29,0.022,288.4
2021-11-01T03:40:03,42.805,6.029,-0.025,-0.007,0.007,101.0,100.0,101.0,13.4,1505.2,330.2,-0.8,1.8,2470.684,13.29,0.025,254.4
2021-11-01T03:43:03,42.805,6.029,-0.024,0.008,-0.012,101.0,102.0,100.0,13.3,1505.2,331.0,-0.7,1.8,2470.695,13.29,0.025,288.4
2021-11-01T03:46:03,42.805,6.029,-0.032,0.013,0.018,101.0,101.0,101.0,13.4,1505.2,326.9,-0.8,1.8,2470.692,13.29,0.034,292.1
2021-11-01T03:49:03,42.805,6.029,-0.015,0.006,0.002,102.0,99.0,102.0,13.4,1505.2,327.1,-0.7,1.8,2470.689,13.29,0.016,291.8
2021-11-01T03:52:03,42.805,6.029,-0.033,0.015,0.027,100.0,100.0,101.0,13.4,1505.2,329.7,-0.8,1.8,2470.702,13.29,0.036,294.4
2021-11-01T03:55:03,42.805,6.029,-0.022,0.008,-0.009,101.0,101.0,101.0,13.4,1505.2,328.1,-0.8,1.8,2470.727,13.29,0.023,290.0
2021-11-01T03:58:03,42.805,6.029,-0.029,0.014,0.0,104.0,100.0,101.0,13.4,1505.2,328.9,-0.8,1.8,2470.692,13.29,0.032,295.8
2021-11-01T04:04:03,42.805,6.029,-0.027,0.0,-0.013,101.0,102.0,101.0,13.3,1505.2,326.7,-0.8,1.8,2470.742,13.28,0.026,270.0
2021-11-01T04:07:03,42.805,6.029,-0.012,-0.003,0.001,101.0,101.0,101.0,13.4,1505.2,329.5,-0.7,1.8,2470.744,13.29,0.012,256.0
2021-11-01T04:10:03,42.805,6.029,-0.018,-0.012,-0.018,103.0,100.0,100.0,13.4,1505.2,329.9,-0.8,1.8,2470.729,13.29,0.021,236.3
2021-11-01T04:13:03,42.805,6.029,-0.034,0.017,-0.015,100.0,101.0,101.0,13.4,1505.2,325.7,-0.8,1.8,2470.709,13.29,0.038,296.6
2021-11-01T04:16:03,42.805,6.029,-0.035,0.02,0.039,102.0,100.0,99.0,13.3,1505.2,328.7,-0.7,1.8,2470.703,13.29,0.04,299.7
2021-11-01T04:19:03,42.805,6.029,-0.033,0.002,-0.005,101.0,101.0,100.0,13.3,1505.2,328.2,-0.8,1.8,2470.696,13.29,0.033,273.5
2021-11-01T04:22:03,42.805,6.029,-0.019,0.005,-0.009,98.0,102.0,101.0,13.4,1505.2,327.3,-0.7,1.9,2470.714,13.29,0.019,284.7
2021-11-01T04:25:03,42.805,6.029,-0.026,-0.007,0.005,102.0,99.0,101.0,13.3,1505.2,327.7,-0.7,1.8,2470.684,13.29,0.026,254.9
2021-11-01T04:28:03,42.805,6.029,-0.048,0.001,-0.039,101.0,100.0,101.0,13.4,1505.2,331.5,-0.8,1.8,2470.725,13.29,0.048,271.2
2021-11-01T04:31:03,42.805,6.029,-0.036,-0.006,-0.035,101.0,100.0,101.0,13.3,1505.2,327.4,-0.7,1.8,2470.726,13.29,0.036,260.5
2021-11-01T04:34:03,42.805,6.029,-0.014,-0.023,-0.036,99.0,101.0,101.0,13.3,1505.2,325.1,-0.8,1.8,2470.711,13.29,0.026,211.3
2021-11-01T04:37:03,42.805,6.029,-0.026,0.025,-0.015,101.0,100.0,100.0,13.3,1505.2,325.6,-0.7,1.8,2470.678,13.29,0.036,313.9
2021-11-01T04:40:03,42.805,6.029,-0.038,0.005,-0.005,102.0,101.0,100.0,13.3,1505.2,326.0,-0.8,1.8,2470.664,13.29,0.038,277.5
2021-11-01T04:43:03,42.805,6.029,-0.027,0.026,0.005,102.0,100.0,100.0,13.3,1505.2,330.8,-0.7,1.8,2470.694,13.29,0.037,313.9
2021-11-01T04:46:03,42.805,6.029,-0.008,0.004,0.012,99.0,102.0,101.0,13.4,1505.2,329.9,-0.7,1.8,2470.703,13.29,0.008,296.6
2021-11-01T04:49:03,42.805,6.029,-0.01,0.004,0.037,100.0,101.0,99.0,13.4,1505.2,326.5,-0.7,1.8,2470.707,13.29,0.01,291.8
2021-11-01T04:52:03,42.805,6.029,-0.027,0.001,-0.015,101.0,102.0,101.0,13.4,1505.2,327.1,-0.8,1.8,2470.698,13.29,0.027,272.1
2021-11-01T04:55:03,42.805,6.029,-0.018,0.006,0.009,100.0,101.0,102.0,13.3,1505.2,330.5,-0.7,1.8,2470.671,13.29,0.018,288.4
2021-11-01T04:58:03,42.805,6.029,-0.011,0.003,-0.018,101.0,100.0,100.0,13.4,1505.2,331.4,-0.8,1.8,2470.722,13.29,0.011,285.3
2021-11-01T05:04:03,42.805,6.029,-0.016,0.005,0.014,101.0,101.0,101.0,13.3,1505.2,329.5,-0.7,1.8,2470.729,13.29,0.016,287.4
2021-11-01T05:07:03,42.805,6.029,0.001,0.006,-0.002,101.0,100.0,101.0,13.4,1505.2,330.0,-0.8,1.8,2470.736,13.29,0.006,9.5
2021-11-01T05:10:03,42.805,6.029,-0.033,0.002,-0.027,101.0,100.0,101.0,13.4,1505.2,328.5,-0.8,1.8,2470.704,13.29,0.033,273.5
2021-11-01T05:13:03,42.805,6.029,-0.036,-0.012,-0.031,99.0,101.0,100.0,13.4,1505.2,326.6,-0.8,1.8,2470.707,13.29,0.037,251.6
2021-11-01T05:16:03,42.805,6.029,-0.005,-0.017,-0.025,100.0,101.0,100.0,13.4,1505.2,326.9,-0.8,1.8,2470.713,13.29,0.017,196.4
2021-11-01T05:19:03,42.805,6.029,-0.025,0.015,0.016,101.0,101.0,101.0,13.3,1505.2,328.2,-0.7,1.8,2470.724,13.29,0.029,301.0
2021-11-01T05:22:03,42.805,6.029,-0.039,0.013,-0.019,100.0,101.0,102.0,13.4,1505.2,328.6,-0.8,1.8,2470.683,13.29,0.041,288.4
2021-11-01T05:25:03,42.805,6.029,-0.02,0.001,0.003,101.0,100.0,101.0,13.4,1505.2,325.9,-0.8,1.8,2470.705,13.29,0.02,272.9
2021-11-01T05:28:03,42.805,6.029,-0.032,0.012,-0.007,102.0,101.0,101.0,13.4,1505.2,331.2,-0.8,1.9,2470.679,13.29,0.034,290.6
2021-11-01T05:31:03,42.805,6.029,-0.005,0.0,-0.022,102.0,101.0,99.0,13.3,1505.2,326.9,-0.7,1.8,2470.698,13.29,0.005,270.0
2021-11-01T05:34:03,42.805,6.029,-0.016,-0.002,-0.008,101.0,100.0,101.0,13.4,1505.2,329.4,-0.8,1.8,2470.669,13.29,0.016,262.9
2021-11-01T05:37:03,42.805,6.029,-0.039,0.03,0.012,102.0,101.0,101.0,13.3,1505.2,327.4,-0.8,1.8,2470.697,13.29,0.049,307.6
2021-11-01T05:40:03,42.805,6.029,-0.024,0.016,-0.003,105.0,100.0,101.0,13.4,1505.2,329.7,-0.7,1.8,2470.659,13.29,0.028,303.7
2021-11-01T05:43:03,42.805,6.029,-0.03,0.003,-0.011,99.0,101.0,101.0,13.3,1505.2,326.5,-0.7,1.8,2470.679,13.29,0.03,275.7
2021-11-01T05:46:03,42.805,6.029,-0.012,0.026,0.012,100.0,100.0,101.0,13.3,1505.2,330.1,-0.7,1.8,2470.689,13.29,0.028,335.2
2021-11-01T05:49:03,42.805,6.029,-0.016,0.002,-0.018,100.0,100.0,101.0,13.4,1505.2,327.6,-0.7,1.8,2470.655,13.29,0.016,277.1
2021-11-01T05:52:03,42.805,6.029,-0.027,0.006,-0.021,100.0,102.0,100.0,13.4,1505.2,331.0,-0.8,1.8,2470.673,13.29,0.027,282.5
2021-11-01T05:55:03,42.805,6.029,-0.043,0.025,0.015,100.0,101.0,100.0,13.4,1505.2,327.2,-0.7,1.8,2470.709,13.29,0.049,300.2
2021-11-01T05:58:03,42.805,6.029,-0.018,0.0,0.02,100.0,101.0,100.0,13.3,1505.2,327.2,-0.7,1.9,2470.7,13.29,0.018,270.0
2021-11-01T06:04:03,42.805,6.029,0.004,-0.002,0.003,103.0,100.0,101.0,13.3,1505.2,326.0,-0.8,1.8,2470.693,13.28,0.004,116.6
2021-11-01T06:07:03,42.805,6.029,-0.022,-0.012,-0.04,101.0,101.0,101.0,13.4,1505.2,331.7,-0.7,1.8,2470.711,13.28,0.025,241.4
2021-11-01T06:10:03,42.805,6.029,-0.016,0.018,0.012,100.0,99.0,102.0,13.4,1505.2,326.4,-0.8,1.8,2470.674,13.29,0.024,318.4
2021-11-01T06:13:03,42.805,6.029,-0.03,-0.01,0.003,100.0,102.0,101.0,13.4,1505.2,330.9,-0.8,1.8,2470.692,13.29,0.031,251.6
2021-11-01T06:16:03,42.805,6.029,-0.025,0.004,-0.021,100.0,100.0,102.0,13.4,1505.2,326.1,-0.7,1.8,2470.714,13.29,0.025,279.1
2021-11-01T06:19:03,42.805,6.029,-0.022,0.004,0.0,102.0,102.0,100.0,13.4,1505.2,329.1,-0.7,1.8,2470.704,13.29,0.022,280.3
2021-11-01T06:22:03,42.805,6.029,-0.01,-0.002,0.003,100.0,101.0,101.0,13.4,1505.2,328.2,-0.8,1.8,2470.661,13.29,0.01,258.7
2021-11-01T06:25:03,42.805,6.029,-0.005,0.024,0.017,101.0,100.0,101.0,13.4,1505.2,329.0,-0.8,1.8,2470.707,13.29,0.024,348.2
2021-11-01T06:28:03,42.805,6.029,-0.02,0.0,0.001,100.0,100.0,101.0,13.4,1505.2,329.3,-0.8,1.8,2470.67,13.29,0.02,270.0
2021-11-01T06:31:03,42.805,6.029,-0.005,-0.01,-0.021,100.0,100.0,101.0,13.4,1505.2,328.1,-0.8,1.8,2470.658,13.29,0.011,206.6
2021-11-01T06:34:03,42.805,6.029,-0.016,0.005,-0.004,101.0,101.0,100.0,13.3,1505.2,330.0,-0.8,1.8,2470.708,13.29,0.016,287.4
2021-11-01T06:37:03,42.805,6.029,-0.02,-0.005,-0.028,101.0,100.0,100.0,13.4,1505.2,325.6,-0.7,1.8,2470.699,13.29,0.02,256.0
2021-11-01T06:40:03,42.805,6.029,-0.007,-0.008,-0.031,100.0,99.0,102.0,13.4,1505.2,327.2,-0.7,1.8,2470.68,13.29,0.01,221.2
2021-11-01T06:43:03,42.805,6.029,-0.018,0.001,-0.02,100.0,101.0,101.0,13.4,1505.2,331.0,-0.7,1.8,2470.698,13.29,0.018,273.2
2021-11-01T06:46:03,42.805,6.029,-0.004,0.0,0.015,101.0,101.0,100.0,13.4,1505.2,328.0,-0.7,1.8,2470.651,13.29,0.004,270.0
2021-11-01T06:49:03,42.805,6.029,-0.006,-0.002,0.004,101.0,100.0,100.0,13.4,1505.2,326.1,-0.7,1.8,2470.683,13.29,0.006,251.6
2021-11-01T06:52:03,42.805,6.029,-0.011,-0.002,-0.01,102.0,99.0,101.0,13.4,1505.2,326.4,-0.8,1.8,2470.635,13.29,0.011,259.7
2021-11-01T06:55:03,42.805,6.029,0.0,-0.021,-0.022,100.0,100.0,100.0,13.4,1505.2,324.9,-0.7,1.8,2470.673,13.29,0.021,180.0
2021-11-01T06:58:03,42.805,6.029,-0.018,0.019,0.012,100.0,100.0,100.0,13.4,1505.2,327.4,-0.7,1.8,2470.661,13.29,0.026,316.5
2021-11-01T07:04:03,42.805,6.029,-0.019,0.012,0.017,99.0,100.0,101.0,13.4,1505.2,326.4,-0.8,1.8,2470.66,13.29,0.022,302.3
2021-11-01T07:07:03,42.805,6.029,-0.007,-0.011,-0.017,99.0,101.0,101.0,13.4,1505.2,326.0,-0.8,1.8,2470.704,13.29,0.013,212.5
2021-11-01T07:10:03,42.805,6.029,-0.017,0.003,0.006,100.0,101.0,100.0,13.4,1505.2,329.7,-0.8,1.8,2470.673,13.29,0.017,280.0
2021-11-01T07:13:03,42.805,6.029,-0.033,0.012,0.0,102.0,99.0,102.0,13.3,1505.2,329.4,-0.7,1.8,2470.664,13.29,0.035,290.0
2021-11-01T07:16:03,42.805,6.029,-0.003,0.002,-0.004,100.0,99.0,101.0,13.4,1505.2,329.2,-0.8,1.8,2470.693,13.29,0.003,303.7
2021-11-01T07:19:03,42.805,6.029,-0.022,-0.009,-0.018,99.0,101.0,100.0,13.3,1505.2,326.5,-0.8,1.8,2470.662,13.29,0.023,247.8
2021-11-01T07:22:03,42.805,6.029,-0.032,0.004,-0.009,99.0,100.0,101.0,13.4,1505.2,325.4,-0.8,1.9,2470.701,13.29,0.032,277.1
2021-11-01T07:25:03,42.805,6.029,0.012,-0.009,0.011,100.0,100.0,100.0,13.4,1505.2,326.9,-0.8,1.8,2470.685,13.29,0.015,126.9
2021-11-01T07:28:03,42.805,6.029,-0.02,0.002,-0.022,99.0,100.0,101.0,13.3,1505.2,330.0,-0.8,1.8,2470.658,13.29,0.02,275.7
2021-11-01T07:31:03,42.805,6.029,0.0,-0.001,0.005,99.0,99.0,102.0,13.4,1505.2,330.5,-0.8,1.8,2470.647,13.29,0.001,180.0
2021-11-01T07:34:03,42.805,6.029,-0.024,0.017,0.013,102.0,100.0,100.0,13.4,1505.2,328.5,-0.8,1.8,2470.702,13.29,0.029,305.3
2021-11-01T07:37:03,42.805,6.029,-0.001,-0.01,0.017,101.0,101.0,100.0,13.4,1505.2,331.0,-0.7,1.8,2470.679,13.29,0.01,185.7
2021-11-01T07:40:03,42.805,6.029,-0.004,-0.003,-0.014,100.0,101.0,100.0,13.4,1505.2,329.3,-0.7,1.8,2470.67,13.29,0.005,233.1
2021-11-01T07:43:03,42.805,6.029,0.008,-0.002,0.003,100.0,100.0,100.0,13.3,1505.2,329.8,-0.7,1.8,2470.627,13.29,0.008,104.0
2021-11-01T07:46:03,42.805,6.029,-0.011,-0.001,-0.007,100.0,100.0,100.0,13.3,1505.2,326.2,-0.8,1.8,2470.637,13.29,0.011,264.8
2021-11-01T07:49:03,42.805,6.029,-0.018,0.009,-0.02,99.0,101.0,100.0,13.4,1505.2,326.3,-0.8,1.8,2470.625,13.29,0.02,296.6
2021-11-01T07:52:03,42.805,6.029,-0.03,0.01,0.0,99.0,100.0,101.0,13.3,1505.2,327.3,-0.7,1.8,2470.673,13.29,0.031,288.4
2021-11-01T07:55:03,42.805,6.029,-0.023,0.003,-0.006,101.0,99.0,100.0,13.3,1505.2,325.3,-0.7,1.8,2470.634,13.29,0.023,277.4
2021-11-01T07:58:03,42.805,6.029,0.0,-0.015,-0.013,101.0,100.0,99.0,13.4,1505.2,327.3,-0.7,1.8,2470.631,13.29,0.015,180.0
2021-11-01T08:04:03,42.805,6.029,-0.016,-0.018,-0.034,102.0,100.0,100.0,13.4,1505.2,331.6,-0.8,1.8,2470.686,13.29,0.024,221.6
2021-11-01T08:07:03,42.805,6.029,-0.015,0.008,-0.01,100.0,102.0,99.0,13.4,1505.2,331.1,-0.8,1.8,2470.65,13.29,0.017,298.1
2021-11-01T08:10:03,42.805,6.029,0.01,-0.007,-0.011,101.0,100.0,101.0,13.4,1505.2,327.3,-0.7,1.8,2470.664,13.29,0.012,125.0
2021-11-01T08:13:03,42.805,6.029,-0.014,-0.012,-0.056,101.0,101.0,101.0,13.3,1505.2,331.3,-0.7,1.8,2470.648,13.29,0.018,229.4
2021-11-01T08:16:03,42.805,6.029,0.0,-0.011,-0.041,100.0,101.0,101.0,13.4,1505.2,325.3,-0.8,1.8,2470.635,13.29,0.011,180.0
2021-11-01T08:19:03,42.805,6.029,-0.017,-0.006,0.001,101.0,100.0,100.0,13.4,1505.2,325.8,-0.8,1.8,2470.673,13.29,0.018,250.6
2021-11-01T08:22:03,42.805,6.029,-0.011,-0.015,-0.029,101.0,99.0,101.0,13.3,1505.2,330.4,-0.7,1.8,2470.598,13.29,0.018,216.3
2021-11-01T08:25:03,42.805,6.029,-0.025,-0.014,-0.033,100.0,100.0,100.0,13.3,1505.2,328.2,-0.7,1.8,2470.63,13.29,0.028,240.7
2021-11-01T08:28:03,42.805,6.029,-0.019,-0.002,0.001,100.0,100.0,101.0,13.4,1505.2,328.0,-0.8,1.8,2470.637,13.29,0.019,264.0
2021-11-01T08:31:03,42.805,6.029,-0.045,0.001,-0.043,100.0,100.0,101.0,13.4,1505.2,330.9,-0.7,1.8,2470.619,13.29,0.045,271.3
2021-11-01T08:34:03,42.805,6.029,-0.006,0.0,0.012,101.0,100.0,101.0,13.4,1505.2,328.6,-0.7,1.8,2470.64,13.29,0.006,270.0
2021-11-01T08:37:03,42.805,6.029,-0.013,-0.002,0.012,101.0,100.0,100.0,13.3,1505.2,331.6,-0.7,1.8,2470.585,13.29,0.013,261.3
2021-11-01T08:40:03,42.805,6.029,-0.012,-0.01,-0.016,101.0,100.0,101.0,13.3,1505.2,325.4,-0.8,1.8,2470.598,13.29,0.015,230.2
2021-11-01T08:43:03,42.805,6.029,-0.009,-0.023,-0.03,101.0,101.0,100.0,13.3,1505.2,328.6,-0.7,1.8,2470.595,13.29,0.024,201.4
2021-11-01T08:46:03,42.805,6.029,-0.035,0.018,0.02,100.0,100.0,100.0,13.4,1505.2,327.7,-0.8,1.8,2470.566,13.29,0.039,297.2
2021-11-01T08:49:03,42.805,6.029,-0.029,0.001,-0.003,100.0,100.0,100.0,13.4,1505.2,327.7,-0.8,1.8,2470.597,13.29,0.029,272.0
2021-11-01T08:52:03,42.805,6.029,-0.015,0.0,-0.005,101.0,100.0,100.0,13.4,1505.2,328.3,-0.8,1.8,2470.624,13.29,0.015,270.0
2021-11-01T08:55:03,42.805,6.029,-0.022,0.005,0.01,100.0,100.0,101.0,13.3,1505.2,328.7,-0.8,1.8,2470.593,13.29,0.022,282.8
2021-11-01T08:58:03,42.805,6.029,-0.009,0.009,0.016,100.0,101.0,100.0,13.4,1505.2,327.3,-0.7,1.8,2470.583,13.29,0.012,315.0
2021-11-01T09:04:03,42.805,6.029,-0.026,0.007,-0.024,101.0,101.0,101.0,13.3,1505.2,331.2,-0.7,1.8,2470.674,13.29,0.026,285.1
2021-11-01T09:07:03,42.805,6.029,-0.001,-0.011,-0.016,100.0,101.0,100.0,13.4,1505.2,327.0,-0.7,1.8,2470.634,13.29,0.011,185.2
2021-11-01T09:10:03,42.805,6.029,-0.014,0.0,-0.004,100.0,101.0,100.0,13.4,1505.2,331.0,-0.8,1.8,2470.666,13.29,0.014,270.0
2021-11-01T09:13:03,42.805,6.029,0.007,-0.015,-0.016,99.0,100.0,100.0,13.4,1505.2,329.9,-0.8,1.8,2470.663,13.29,0.016,155.0
2021-11-01T09:16:03,42.805,6.029,-0.019,-0.007,-0.005,102.0,100.0,101.0,13.4,1505.2,326.8,-0.8,1.8,2470.631,13.29,0.02,249.8
2021-11-01T09:19:03,42.805,6.029,-0.021,-0.007,-0.01,102.0,99.0,100.0,13.4,1505.2,331.9,-0.8,1.8,2470.605,13.29,0.022,251.6
2021-11-01T09:22:03,42.805,6.029,0.01,-0.008,0.006,101.0,99.0,101.0,13.4,1505.2,328.8,-0.7,1.8,2470.575,13.29,0.012,128.7
2021-11-01T09:25:03,42.805,6.029,-0.005,-0.006,-0.003,100.0,100.0,100.0,13.4,1505.2,331.8,-0.8,1.8,2470.609,13.29,0.007,219.8
2021-11-01T09:28:03,42.805,6.029,-0.034,0.026,0.024,101.0,99.0,100.0,13.3,1505.2,327.3,-0.8,1.8,2470.615,13.29,0.042,307.4
2021-11-01T09:31:03,42.805,6.029,0.0,0.001,0.025,100.0,101.0,100.0,13.3,1505.2,330.0,-0.8,1.8,2470.614,13.29,0.001,0.0
2021-11-01T09:34:03,42.805,6.029,-0.019,-0.013,-0.025,100.0,101.0,100.0,13.4,1505.2,330.3,-0.7,1.8,2470.626,13.29,0.023,235.6
2021-11-01T09:37:03,42.805,6.029,-0.012,-0.005,-0.021,100.0,100.0,101.0,13.4,1505.2,329.1,-0.8,1.8,2470.587,13.29,0.013,247.4
2021-11-01T09:40:03,42.805,6.029,-0.012,0.017,0.026,100.0,100.0,101.0,13.4,1505.2,325.9,-0.7,1.8,2470.595,13.29,0.02,324.8
2021-11-01T09:43:03,42.805,6.029,-0.018,0.012,0.002,100.0,100.0,100.0,13.4,1505.2,328.6,-0.7,1.8,2470.608,13.29,0.021,303.7
2021-11-01T09:46:03,42.805,6.029,-0.029,-0.011,-0.016,100.0,100.0,99.0,13.4,1505.2,331.4,-0.8,1.8,2470.591,13.29,0.031,249.2
2021-11-01T09:49:03,42.805,6.029,-0.022,0.026,0.014,100.0,99.0,101.0,13.4,1505.2,331.3,-0.7,1.9,2470.59,13.29,0.034,319.8
2021-11-01T09:52:03,42.805,6.029,-0.017,0.021,0.02,100.0,100.0,101.0,13.4,1505.2,325.4,-0.8,1.8,2470.59,13.29,0.027,321.0
2021-11-01T09:55:03,42.805,6.029,-0.014,0.0,-0.022,99.0,99.0,100.0,13.3,1505.2,329.7,-0.8,1.9,2470.588,13.29,0.014,270.0